Overview Statistics Trail Chart Weather Telemetry Raw packets
 

This is the latest recevied weather packets stored in our database for station/object TB1YZC-13. If no packets are shown the sender has not sent any weather packets the latest 10 day(s).

<< 14 15 16 17 18 19 20 >>
Time Temp. Humidity Pressure Rain* Wind** Luminosity Snow
1788441103 28.33° C 53% 1016.1 hPa - - - -
1788440500 27.78° C 53% 1016.2 hPa - - - -
1788439898 28.33° C 50% 1016.3 hPa - - - -
1788439294 28.33° C 54% 1016.2 hPa - - - -
1788438691 27.78° C 55% 1016.3 hPa - - - -
1788438087 27.78° C 54% 1016.5 hPa - - - -
1788437485 27.78° C 54% 1016.4 hPa - - - -
1788436881 27.22° C 55% 1016.6 hPa - - - -
1788436277 26.67° C 55% 1016.7 hPa - - - -
1788435674 27.78° C 54% 1016.6 hPa - - - -
1788435071 28.33° C 54% 1016.6 hPa - - - -
1788434468 27.78° C 54% 1016.6 hPa - - - -
1788433866 27.78° C 52% 1016.6 hPa - - - -
1788433261 27.78° C 51% 1016.8 hPa - - - -
1788432658 27.22° C 52% 1016.8 hPa - - - -
1788432055 27.22° C 57% 1016.9 hPa - - - -
1788431451 27.78° C 56% 1017 hPa - - - -
1788430848 27.22° C 54% 1016.9 hPa - - - -
1788430262 27.22° C 55% 1017 hPa - - - -
1788429642 26.67° C 57% 1017.2 hPa - - - -
1788429039 26.67° C 60% 1017.4 hPa - - - -
1788428435 26.67° C 59% 1017.4 hPa - - - -
1788427833 26.67° C 57% 1017.5 hPa - - - -
1788427228 26.67° C 58% 1017.5 hPa - - - -
1788426625 26.11° C 60% 1017.7 hPa - - - -

* Rain since midnight (hover to see other rain measurements)
** Current wind speed in m/s (hover to see current wind gust speed)